Regional Weather Roundup
Issued by NWS

Home | Current Version | Previous Version | Graphics & Text | Print | Product List | Glossary On
Versions: 1 2 3 4 5 6 7 8 9 10 11 12 13 14 15 16 17 18 19 20 21 22 23 24 25 26 27 28 29 30 31 32 33 34 35 36 37 38 39 40 41 42 43 44 45 46 47 48 49 50
000
ASUS45 KPSR 301510
RWRAZ

ARIZONA REGIONAL HOURLY WEATHER ROUNDUP
NATIONAL WEATHER SERVICE PHOENIX AZ
800 AM MST FRI JAN 30 2015

NOTE: FAIR INDICATES FEW OR NO CLOUDS BELOW 12,000 FEET WITH NO
SIGNIFICANT WEATHER AND/OR OBSTRUCTIONS TO VISIBILITY.

AZZ001>003-036-301600-
NORTHWEST ARIZONA

CITY           SKY/WX    TMP DP  RH WIND       PRES   REMARKS
BULLHEAD CITY  LGT RAIN  57  50  77 N14       29.92S
KINGMAN        LGT RAIN  47  45  93 N9        29.93F
$$

AZZ004>008-015-016-018-301600-
NORTH CENTRAL ARIZONA

CITY           SKY/WX    TMP DP  RH WIND       PRES   REMARKS
GRAND CANYON   LGT RAIN  36  34  92 E10G18    30.02S WCI  28
PRESCOTT       CLOUDY    46  43  89 SE8       29.95F FOG
FLAGSTAFF      LGT RAIN  36  35  96 NE8       30.02S FOG     WCI  30
PAYSON         FOG       43  43 100 VRB5      30.03S VSB<1/4
$$

AZZ009>014-017-301600-
NORTHEAST ARIZONA

CITY           SKY/WX    TMP DP  RH WIND       PRES   REMARKS
WINSLOW        CLOUDY    42  40  92 E12       30.02F
SAINT JOHNS    CLOUDY    42  38  85 E13       30.04F
WINDOW ROCK    SNOW      33  30  88 E5        30.14F VSB 1/2 WCI  29
SHOW LOW       LGT RAIN  37  37 100 CALM      30.07R
$$

AZZ023-301600-
GREATER PHOENIX AREA

CITY           SKY/WX    TMP DP  RH WIND       PRES   REMARKS
PHOENIX        CLOUDY    58  56  93 E7        29.90S
BUCKEYE          N/A     55  55 100 SW3       29.91S
GLENDALE       DRIZZLE   57  57 100 E8        29.91F
LUKE AFB       DRIZZLE   58  56  96 SE3       29.89F FOG
DEER VALLEY    LGT RAIN  56  54  93 SE9G16    29.90S
SCOTTSDALE     CLOUDY    56  53  90 E7        29.92F
MESA-FALCON    CLOUDY    54  54 100 N8        29.92S
MESA-GATEWAY   DRZL/FOG  55  55 100 SE5       29.95R VSB 1
CHANDLER       DRIZZLE   57  55  94 NE14G21   29.92S
$$

AZZ027-028-301600-
SOUTHWEST MARICOPA COUNTY AND PINAL COUNTY

CITY           SKY/WX    TMP DP  RH WIND       PRES   REMARKS
CASA GRANDE    CLOUDY    55  52  88 E5        29.91F
GILA BEND      LGT RAIN  57  57 100 CALM      29.91S FOG
$$

AZZ503-504-507>509-301600-
SOUTHEAST ARIZONA

CITY           SKY/WX    TMP DP  RH WIND       PRES   REMARKS
TUCSON         LGT RAIN  59  53  80 E10       29.95S
DAVIS-MONTHAN  DRIZZLE   57  55  91 E9        29.93S
RYAN FIELD     LGT RAIN  57  57 100 E6        29.94S
NOGALES        LGT RAIN  55  48  77 SE10G22   29.96F
SIERRA VISTA   LGT RAIN  48  48 100 SE15      30.03S FOG
DOUGLAS        LGT RAIN  47  45  93 E8        30.06R
SAFFORD        RAIN      47  45  93 SE8       30.10S FOG
$$

AZZ020-021-025-026-031-301600-
SOUTHWEST ARIZONA

CITY           SKY/WX    TMP DP  RH WIND       PRES   REMARKS
YUMA           PTSUNNY   59  56  89 N5        29.92R
$$

CAZ031-033-041-043-047-048-061-301600-
SOUTHERN CALIFORNIA

CITY           SKY/WX    TMP DP  RH WIND       PRES   REMARKS
DOWNTOWN L.A.  LGT RAIN  62  50  64 CALM      29.92R
L.A. AIRPORT   LGT RAIN  63  48  58 CALM      29.92S
SAN DIEGO      PTSUNNY   61  55  81 S3        29.94R
BURBANK        LGT RAIN  60  48  64 CALM      29.92S
ONTARIO        CLOUDY    57  49  74 NW5       29.93S
RIVERSIDE      CLOUDY    60  44  55 CALM      29.94S
PALM SPRINGS   LGT RAIN  59  53  80 SW5       29.96F
EL CENTRO NAS  CLOUDY    56  53  90 N6        29.92S
IMPERIAL       PTSUNNY   56  54  93 NW3       29.91F
BLYTHE         LGT RAIN  57  56  96 NW6       29.92S
NEEDLES        LGT RAIN  57  51  80 W7        29.92R
$$

NVZ020-UTZ003-301600-
SOUTHERN NEVADA-UTAH

CITY           SKY/WX    TMP DP  RH WIND       PRES   REMARKS
LAS VEGAS      LGT RAIN  55  44  66 CALM      29.93S
SALT LAKE CITY PTSUNNY   37  35  92 W3        30.14S
$$

NMZ009-TXZ055-301600-
NEW MEXICO-WEST TEXAS

CITY           SKY/WX    TMP DP  RH WIND       PRES   REMARKS
ALBUQUERQUE    LGT SNOW  33  30  88 E14       30.27F VSB 1   WCI  23
EL PASO        CLOUDY    41  36  82 NE9       30.24F
$$


........................KEY........................
SKY/WX - SKY CONDITION/WEATHER
TMP    - TEMPERATURE IN FAHRENHEIT
DP     - DEW POINT IN FAHRENHEIT
RH     - RELATIVE HUMIDITY IN PERCENT
WIND   - DIRECTION AND SPEED IN MILES PER HOUR (MPH)
VRB    - VARIABLE WIND DIRECTION
PRES   - MEAN SEA LEVEL PRESSURE IN INCHES OF MERCURY
         F - FALLING PRESSURE   R - RISING PRESSURE
         S - STEADY PRESSURE
VSB    - VISIBILITY IN MILES
HX     - HEAT INDEX IN FAHRENHEIT
WCI    - WIND CHILL INDEX IN FAHRENHEIT
TC     - TEMPERATURE IN CELSIUS WHICH IS ALSO KNOWN AS
         TEMPERATURE IN CENTIGRADE
AFB    - AIR FORCE BASE
         LUKE AFB IS LUKE AIR FORCE BASE
         DAVIS-MONTHAN IS DAVIS-MONTHAN AIR FORCE BASE
NAS    - NAVAL AIR STATION
         EL CENTRO NAS IS EL CENTRO NAVAL AIR STATION
N/A    - NOT AVAILABLE


USA.gov is the U.S. government's official web portal to all federal, state and local government web resources and services.